Powrót do katalogu

STARLINK-32076

AktywnyŁącznośćVLEO
NORAD 60350·PAYLOAD·🇺🇸 United States

Wystrzelony Aug 2, 2024 z Cape Canaveral Space Force Station

Loading…

Następne Przeloty (najbliższe 24 godziny)

TLE

ŚwieżeSource: CelesTrak SupGP

Epoka: Sep 14, 2026, 22:49 UTC

1 60350C 24136X   26257.95118056  .00054283  00000+0  17445-2 0  2578
2 60350  53.1564 274.9892 0001343  98.1219 257.2153 15.31695604    18

Śledź STARLINK-32076 w czasie rzeczywistym z AllMySat

Download on the App Store